• In Deutschland
  • Länderverzeichnis
  • Für 7 Tage
  • Wassertemperatur
  • Satellitenkarten
  • Wetterkarte
  • Widgets
  • user-avatar
    Anmelden

    Stündliche Wetter Katerini

    Heute, 22 Oktober, Montag

    Zeit Temperatur Niederschläge Wind Luftdruck Luftfeuchtigkeit
    00:00 +17°C° 0.6 mm 2 m/S 761 mmHg 78%
    01:00 +17°C° 0.6 mm 2 m/S 761 mmHg 79%
    02:00 +16°C° 0.6 mm 2 m/S 761 mmHg 79%
    03:00 +16°C° 0.5 mm 2 m/S 761 mmHg 80%
    04:00 +16°C° 0.5 mm 2 m/S 761 mmHg 81%
    05:00 +16°C° 0.5 mm 2 m/S 761 mmHg 81%
    06:00 +16°C° 0.3 mm 2 m/S 761 mmHg 81%
    07:00 +16°C° 0.3 mm 2 m/S 761 mmHg 81%
    08:00 +16°C° 0.3 mm 2 m/S 761 mmHg 81%
    09:00 +17°C° 0.5 mm 2 m/S 761 mmHg 79%
    10:00 +17°C° 0.5 mm 2 m/S 761 mmHg 78%
    11:00 +18°C° 0.5 mm 2 m/S 761 mmHg 76%
    12:00 +18°C° 0.4 mm 2 m/S 760 mmHg 75%
    13:00 +18°C° 0.4 mm 3 m/S 760 mmHg 73%
    14:00 +19°C° 0.4 mm 3 m/S 760 mmHg 72%
    15:00 +18°C° 0.3 mm 3 m/S 759 mmHg 73%
    16:00 +18°C° 0.3 mm 3 m/S 759 mmHg 73%
    17:00 +18°C° 0.3 mm 3 m/S 759 mmHg 74%
    18:00 +18°C° 0.4 mm 3 m/S 759 mmHg 75%
    19:00 +17°C° 0.4 mm 2 m/S 759 mmHg 77%
    20:00 +17°C° 0.4 mm 2 m/S 760 mmHg 78%
    21:00 +17°C° 0.6 mm 2 m/S 760 mmHg 79%
    22:00 +17°C° 0.6 mm 3 m/S 760 mmHg 80%
    23:00 +16°C° 0.6 mm 3 m/S 760 mmHg 81%

    Morgen, 23 Oktober, Dienstag

    Zeit Temperatur Niederschläge Wind Luftdruck Luftfeuchtigkeit
    00:00 +16°C° 1 mm 3 m/S 760 mmHg 83%
    01:00 +16°C° 1 mm 3 m/S 760 mmHg 84%
    02:00 +16°C° 1 mm 3 m/S 760 mmHg 86%
    03:00 +16°C° 0.6 mm 3 m/S 760 mmHg 86%
    04:00 +14°C° 0.6 mm 3 m/S 760 mmHg 86%
    05:00 +14°C° 0.6 mm 3 m/S 759 mmHg 86%
    06:00 +14°C° 0.1 mm 3 m/S 759 mmHg 84%
    07:00 +16°C° 0.1 mm 3 m/S 760 mmHg 83%
    08:00 +16°C° 0.1 mm 3 m/S 760 mmHg 81%
    09:00 +17°C° 0 mm 3 m/S 760 mmHg 75%
    10:00 +18°C° 0 mm 2 m/S 760 mmHg 69%
    11:00 +19°C° 0 mm 2 m/S 760 mmHg 62%
    12:00 +19°C° 0 mm 2 m/S 759 mmHg 59%
    13:00 +20°C° 0 mm 2 m/S 759 mmHg 56%
    14:00 +21°C° 0 mm 2 m/S 759 mmHg 53%
    15:00 +20°C° 0 mm 2 m/S 758 mmHg 55%
    16:00 +20°C° 0 mm 2 m/S 758 mmHg 56%
    17:00 +20°C° 0 mm 2 m/S 758 mmHg 57%
    18:00 +20°C° 0 mm 1 m/S 758 mmHg 61%
    19:00 +19°C° 0 mm 1 m/S 759 mmHg 64%
    20:00 +18°C° 0 mm 1 m/S 759 mmHg 67%
    21:00 +18°C° 0 mm 1 m/S 759 mmHg 68%
    22:00 +16°C° 0 mm 1 m/S 759 mmHg 69%
    23:00 +16°C° 0 mm 1 m/S 759 mmHg 70%

    übermorgen, 24 Oktober, Mittwoch

    Zeit Temperatur Niederschläge Wind Luftdruck Luftfeuchtigkeit
    00:00 +16°C° 0 mm 1 m/S 758 mmHg 71%
    01:00 +15°C° 0 mm 2 m/S 758 mmHg 72%
    02:00 +15°C° 0 mm 2 m/S 758 mmHg 73%
    03:00 +15°C° 0 mm 2 m/S 757 mmHg 73%
    04:00 +15°C° 0 mm 2 m/S 757 mmHg 74%
    05:00 +14°C° 0 mm 2 m/S 756 mmHg 74%
    06:00 +14°C° 0 mm 2 m/S 756 mmHg 73%
    07:00 +15°C° 0 mm 2 m/S 756 mmHg 72%
    08:00 +15°C° 0 mm 2 m/S 756 mmHg 71%
    09:00 +17°C° 0 mm 2 m/S 756 mmHg 64%
    10:00 +19°C° 0 mm 2 m/S 755 mmHg 57%
    11:00 +20°C° 0 mm 2 m/S 755 mmHg 49%
    12:00 +21°C° 0 mm 2 m/S 754 mmHg 46%
    13:00 +23°C° 0 mm 2 m/S 753 mmHg 42%
    14:00 +25°C° 0 mm 2 m/S 752 mmHg 38%
    15:00 +24°C° 0 mm 2 m/S 752 mmHg 40%
    16:00 +24°C° 0 mm 2 m/S 752 mmHg 42%
    17:00 +23°C° 0 mm 2 m/S 751 mmHg 43%
    18:00 +21°C° 0 mm 2 m/S 752 mmHg 45%
    19:00 +20°C° 0 mm 2 m/S 752 mmHg 48%
    20:00 +20°C° 0 mm 1 m/S 752 mmHg 50%
    21:00 +18°C° 0 mm 3 m/S 753 mmHg 51%
    22:00 +17°C° 0 mm 5 m/S 754 mmHg 53%
    23:00 +16°C° 0 mm 7 m/S 755 mmHg 54%

    25 Oktober, Donnerstag

    Zeit Temperatur Niederschläge Wind Luftdruck Luftfeuchtigkeit
    00:00 +15°C° 0.1 mm 7 m/S 755 mmHg 55%
    01:00 +14°C° 0.1 mm 7 m/S 755 mmHg 56%
    02:00 +12°C° 0.1 mm 7 m/S 756 mmHg 57%
    03:00 +12°C° 0 mm 7 m/S 756 mmHg 57%
    04:00 +11°C° 0 mm 7 m/S 757 mmHg 58%
    05:00 +10°C° 0 mm 7 m/S 757 mmHg 58%
    06:00 +9°C° 0 mm 7 m/S 758 mmHg 57%
    07:00 +9°C° 0 mm 6 m/S 758 mmHg 55%
    08:00 +9°C° 0 mm 6 m/S 759 mmHg 54%
    09:00 +10°C° 0 mm 6 m/S 759 mmHg 46%
    10:00 +11°C° 0 mm 6 m/S 759 mmHg 38%
    11:00 +14°C° 0 mm 6 m/S 760 mmHg 30%
    12:00 +14°C° 0 mm 6 m/S 759 mmHg 28%
    13:00 +15°C° 0 mm 6 m/S 759 mmHg 26%
    14:00 +16°C° 0 mm 6 m/S 759 mmHg 24%
    15:00 +16°C° 0 mm 5 m/S 759 mmHg 26%
    16:00 +15°C° 0 mm 5 m/S 759 mmHg 27%
    17:00 +15°C° 0 mm 4 m/S 759 mmHg 28%
    18:00 +14°C° 0 mm 4 m/S 760 mmHg 30%
    19:00 +13°C° 0 mm 4 m/S 760 mmHg 31%
    20:00 +12°C° 0 mm 3 m/S 761 mmHg 33%
    21:00 +12°C° 0 mm 3 m/S 761 mmHg 34%
    22:00 +12°C° 0 mm 3 m/S 762 mmHg 35%
    23:00 +12°C° 0 mm 2 m/S 762 mmHg 36%

    26 Oktober, Freitag

    Zeit Temperatur Niederschläge Wind Luftdruck Luftfeuchtigkeit
    00:00 +12°C° 0 mm 2 m/S 762 mmHg 36%
    01:00 +12°C° 0 mm 2 m/S 762 mmHg 37%
    02:00 +12°C° 0 mm 2 m/S 762 mmHg 38%
    03:00 +10°C° 0 mm 2 m/S 762 mmHg 39%
    04:00 +11°C° 0 mm 1 m/S 762 mmHg 40%
    05:00 +11°C° 0 mm 1 m/S 762 mmHg 40%
    06:00 +11°C° 0 mm 1 m/S 762 mmHg 41%
    07:00 +12°C° 0 mm 1 m/S 762 mmHg 41%
    08:00 +12°C° 0 mm 1 m/S 762 mmHg 42%
    09:00 +14°C° 0 mm 1 m/S 762 mmHg 38%
    10:00 +16°C° 0 mm 1 m/S 762 mmHg 34%
    11:00 +19°C° 0 mm 1 m/S 762 mmHg 31%
    12:00 +20°C° 0 mm 1 m/S 761 mmHg 30%
    13:00 +20°C° 0 mm 2 m/S 761 mmHg 29%
    14:00 +21°C° 0 mm 2 m/S 760 mmHg 27%
    15:00 +20°C° 0 mm 2 m/S 760 mmHg 31%
    16:00 +20°C° 0 mm 2 m/S 760 mmHg 34%
    17:00 +19°C° 0 mm 2 m/S 761 mmHg 37%
    18:00 +18°C° 0 mm 2 m/S 761 mmHg 39%
    19:00 +17°C° 0 mm 2 m/S 761 mmHg 41%
    20:00 +16°C° 0 mm 2 m/S 761 mmHg 43%
    21:00 +16°C° 0 mm 2 m/S 762 mmHg 44%
    22:00 +16°C° 0 mm 2 m/S 762 mmHg 45%
    23:00 +15°C° 0 mm 2 m/S 762 mmHg 46%

    27 Oktober, Samstag

    Zeit Temperatur Niederschläge Wind Luftdruck Luftfeuchtigkeit
    00:00 +15°C° 0 mm 1 m/S 762 mmHg 48%
    01:00 +15°C° 0 mm 1 m/S 762 mmHg 49%
    02:00 +15°C° 0 mm 1 m/S 762 mmHg 51%
    03:00 +15°C° 0 mm 1 m/S 762 mmHg 53%
    04:00 +14°C° 0 mm 1 m/S 762 mmHg 55%
    05:00 +14°C° 0 mm 1 m/S 762 mmHg 56%
    06:00 +14°C° 0 mm 1 m/S 762 mmHg 57%
    07:00 +15°C° 0 mm 1 m/S 762 mmHg 58%
    08:00 +15°C° 0 mm 1 m/S 762 mmHg 59%
    09:00 +18°C° 0 mm 1 m/S 761 mmHg 55%
    10:00 +20°C° 0 mm 1 m/S 761 mmHg 51%
    11:00 +21°C° 0 mm 2 m/S 761 mmHg 47%
    12:00 +23°C° 0 mm 2 m/S 760 mmHg 46%
    13:00 +23°C° 0 mm 2 m/S 760 mmHg 44%
    14:00 +24°C° 0 mm 2 m/S 759 mmHg 43%
    15:00 +24°C° 0 mm 3 m/S 759 mmHg 47%
    16:00 +22°C° 0 mm 3 m/S 759 mmHg 52%
    17:00 +21°C° 0 mm 3 m/S 759 mmHg 56%
    18:00 +20°C° 0 mm 3 m/S 759 mmHg 62%
    19:00 +19°C° 0 mm 2 m/S 759 mmHg 67%
    20:00 +18°C° 0 mm 2 m/S 760 mmHg 73%
    21:00 +18°C° 0 mm 2 m/S 760 mmHg 75%
    22:00 +17°C° 0 mm 2 m/S 760 mmHg 76%
    23:00 +18°C° 0 mm 1 m/S 760 mmHg 78%

    28 Oktober, Sonntag

    Zeit Temperatur Niederschläge Wind Luftdruck Luftfeuchtigkeit
    00:00 +18°C° 0 mm 1 m/S 760 mmHg 79%
    01:00 +16°C° 0 mm 1 m/S 760 mmHg 80%
    02:00 +16°C° 0 mm 1 m/S 760 mmHg 81%
    03:00 +16°C° 0 mm 1 m/S 760 mmHg 82%
    04:00 +15°C° 0 mm 1 m/S 760 mmHg 83%
    05:00 +15°C° 0 mm 1 m/S 760 mmHg 83%
    06:00 +16°C° 0 mm 1 m/S 760 mmHg 82%
    07:00 +16°C° 0 mm 1 m/S 760 mmHg 80%
    08:00 +16°C° 0 mm 1 m/S 760 mmHg 78%
    09:00 +19°C° 0 mm 1 m/S 760 mmHg 71%
    10:00 +20°C° 0 mm 2 m/S 760 mmHg 64%
    11:00 +21°C° 0 mm 2 m/S 760 mmHg 57%
    12:00 +23°C° 0 mm 2 m/S 760 mmHg 53%
    13:00 +24°C° 0 mm 3 m/S 759 mmHg 49%
    14:00 +25°C° 0 mm 3 m/S 759 mmHg 46%
    15:00 +24°C° 0 mm 3 m/S 759 mmHg 49%
    16:00 +22°C° 0 mm 3 m/S 759 mmHg 53%
    17:00 +21°C° 0 mm 3 m/S 758 mmHg 56%
    18:00 +21°C° 0 mm 3 m/S 759 mmHg 60%
    19:00 +20°C° 0 mm 2 m/S 759 mmHg 64%
    20:00 +19°C° 0 mm 2 m/S 759 mmHg 68%
    21:00 +19°C° 0 mm 2 m/S 760 mmHg 71%
    22:00 +18°C° 0 mm 2 m/S 760 mmHg 73%
    23:00 +19°C° 0 mm 1 m/S 760 mmHg 75%
    Mehr zeigen